Lid_Strength_Index
1 0 0 0 0 0 0 -1 -0 6 9 10 7 7 6 6 6 7 7 7 6 7 9 11 9 11 13 13
1 0 0 1 1 1 0 -1 -0 8 11 6 7 7 7 7 6 6 7 7 7 9 10 10 11 13 13 16
1 1 1 1 0 -0 -1 -0 8 10 12 5 8 8 8 8 7 7 8 7 9 12 12 13 15 16 18 16
1 1 2 1 1 3 6 6 7 10 10 10 8 8 9 8 8 8 10 11 13 15 16 16 19 18 18 17
2 2 4 6 9 10 10 11 11 11 10 8 9 9 9 8 9 11 14 13 15 18 17 16 15 16 17 17
2 3 6 8 10 9 11 10 10 10 9 10 11 10 8 10 12 14 13 15 18 15 13 14 15 16 17 18
3 5 7 7 5 7 11 10 10 10 10 9 12 11 10 11 13 15 15 17 16 13 14 16 16 16 18 18
5 7 7 5 5 6 14 12 10 10 9 9 11 9 10 11 13 15 14 16 15 15 15 16 17 18 15 16
7 7 6 5 6 7 17 10 10 8 9 11 11 10 10 11 14 15 14 17 16 17 17 17 16 17 15 16
6 6 5 6 6 12 18 12 10 11 11 11 11 11 12 12 12 14 15 16 14 16 16 15 15 15 17 16
7 6 6 8 12 16 12 13 13 12 13 13 13 13 15 16 18 18 19 17 17 15 15 17 16 17 20 22
7 7 7 10 15 13 14 11 12 12 14 13 14 15 16 18 16 18 19 20 19 17 15 18 20 19 21 23
7 7 9 13 15 13 11 12 13 14 14 13 14 15 18 18 17 17 20 20 19 16 15 16 18 19 22 20
7 8 11 13 14 12 12 12 15 14 16 15 15 16 18 16 16 15 17 19 20 17 16 16 17 19 18 23
7 10 14 14 13 11 11 13 14 14 15 15 16 17 17 16 15 15 16 19 19 19 18 20 21 21 22 22
11 15 14 13 10 13 12 12 13 13 14 14 16 17 17 16 14 14 18 17 20 23 22 19 18 20 21 22
13 16 14 13 13 13 14 13 14 13 13 15 16 16 16 14 14 16 19 17 20 23 23 20 19 20 20 20